NNS 30490-39

operational
NORAD ID: 19223 Int'l Des: 1988-052 Owner: NAVAIR Country: US
LEOCIRCULARPOLARONEWEB_TYPE

Über NNS 30490-39

Beschreibung wird geladen...

Live-Position

3D-Globus wird geladen...

Nächste Überflüge

Höhenverlauf

Altitude vs Time

uPlot chart will show altitude changes over time

Zweizeiliger Elementsatz

1 19223U 88052A 26073.26706572 .00000107 00000-0 23227-3 0 9990
2 19223 89.9782 78.1126 0032053 119.5840 251.7268 13.22948281821583
Epoch: 14. März 2026 • Age: 7 hours

Aktueller Status

Höhe 1221.3 km
Geschwindigkeit 7.23 km/s
Subsatellitenpunkt -82.11°S, 110.67°W
Startdatum 16. Juni 1988
Alter 37.7 years
Typ other

Technische Details

Klassifizierung Payload
Masse 170.00 kg
Trockenmasse 150.00 kg
Gesamtmasse 170.00 kg
Länge 1.10 m
Durchmesser 0.50 m
Spannweite 79.20 m
Form Cyl + 4 Pan + Ant
Hersteller GEEW
Bus-Typ Nova
Phasenstatus In Orbit
Besitzer/Staat NAVAIR/US

Große Konstellationen

Loading constellations...